Garden City Regional Airport
KGCK : rendu visible

Aérodrome :











RETROUVEZ-NOUS SUR...

 
LOGIN :

S'inscrire | Disclaimer

   EN    FR    IT 

 









Légende :    VFR   VFR Marginal   IFR   IFR Intensif   IFR Très Intensif
Visi : 
Plafond : 
>= 8 km
>= 3000ft
5 à 8 km
1000 à 3000 ft
1500m à 5 km
500 à 1000 ft
800 à 1500m
200 à 500 ft
< 800m
< 200 ft
Symboles :   Orages  Brouillard  Fortes neiges  Fortes précipitations  Vent > 20 kt






- Altitude de l'aérodrome : 2891 ft
- Code IATA : GCK


KGCK - Garden City Regional

DERNIER METAR :
  • 062354Z 25008KT 10SM CLR 27/M06 A2971 RMK AO2 SLP037 T02721061 10289 20233 55010

METARs EXPIRÉS :
  • 062254Z VRB04KT 10SM CLR 28/M05 A2970 RMK AO2 PK WND 24026/2216 SLP033 T02831050
  • 062154Z VRB04KT 10SM CLR 28/M06 A2972 RMK AO2 SLP037 T02781056

TAF KGCK
Valide du 07 à 00h jusqu'au 08 à 00h UTC


062320Z 0700/0724 23008KT P6SM SKC
FM070800 25008KT P6SM SKC



MET'MAP, la Météo Aéronautique d'un coup d'oeil ! - Copyright ORBIFLY Décembre 2007 - Disclaimer

ORBIFLY MET'MAP TEAM :

Programmation & Développement : Alexandra Zaïnal
Sur une idée originale de : Baudouin d'Aumeries
Assistance à la programmation : Marc-Olivier Méhu
Soutien technique & logistique : Manuel Goepfert

Contact : metmap@orbifly.com




SOURCES & CREDITS :

   NOAA       Earth
Advisory